owner,sensor,date,latitude,longitude,vertical_datum,wind_speed,wind_to_direction,wind_speed_of_gust,qcFlag 
TCOON,ioos:station:TCOON:009:1,2008-04-01T00:00:00Z,27.8398,-97.0727,0.0,5.2,132.0,6.7,'11111222,11111222,11111222' 
TCOON,ioos:station:TCOON:009:1,2008-04-01T01:00:00Z,27.8398,-97.0727,0.0,4.7,132.0,7.2,'11111222,11111222,11111222' 
TCOON,ioos:station:TCOON:009:1,2008-04-01T03:00:00Z,27.8398,-97.0727,0.0,4.3,142.0,5.8,'11111222,11111222,11111222' 
TCOON,ioos:station:TCOON:009:1,2008-04-01T04:00:00Z,27.8398,-97.0727,0.0,3.8,141.0,6.8,'11111222,11111222,11111222' 
TCOON,ioos:station:TCOON:009:1,2008-04-01T05:00:00Z,27.8398,-97.0727,0.0,4.0,156.0,6.2,'11111222,11111222,11111222' 
TCOON,ioos:station:TCOON:009:1,2008-04-01T06:00:00Z,27.8398,-97.0727,0.0,3.8,153.0,5.4,'11111222,11111222,11111222' 
TCOON,ioos:station:TCOON:009:1,2008-04-01T07:00:00Z,27.8398,-97.0727,0.0,3.1,153.0,5.0,'11111222,11111222,11111222' 
TCOON,ioos:station:TCOON:009:1,2008-04-01T08:00:00Z,27.8398,-97.0727,0.0,4.0,155.0,6.6,'11111222,11111222,11111222' 
TCOON,ioos:station:TCOON:009:1,2008-04-01T09:00:00Z,27.8398,-97.0727,0.0,2.9,154.0,4.8,'11111222,11111222,11111222' 
TCOON,ioos:station:TCOON:009:1,2008-04-01T10:00:00Z,27.8398,-97.0727,0.0,3.3,151.0,7.1,'11111222,11111222,11111222' 
TCOON,ioos:station:TCOON:009:1,2008-04-01T11:00:00Z,27.8398,-97.0727,0.0,4.6,155.0,6.8,'11111222,11111222,11111222' 
TCOON,ioos:station:TCOON:009:1,2008-04-01T12:00:00Z,27.8398,-97.0727,0.0,3.4,142.0,5.8,'11111222,11111222,11111222' 
TCOON,ioos:station:TCOON:009:1,2008-04-01T13:00:00Z,27.8398,-97.0727,0.0,2.5,140.0,3.6,'11111222,11111222,11111222' 
TCOON,ioos:station:TCOON:009:1,2008-04-01T14:00:00Z,27.8398,-97.0727,0.0,3.4,142.0,5.6,'11111222,11111222,11111222' 
TCOON,ioos:station:TCOON:009:1,2008-04-01T15:00:00Z,27.8398,-97.0727,0.0,3.8,137.0,5.6,'11111222,11111222,11111222' 
TCOON,ioos:station:TCOON:009:1,2008-04-01T16:00:00Z,27.8398,-97.0727,0.0,5.6,131.0,7.2,'11111222,11111222,11111222' 
TCOON,ioos:station:TCOON:009:1,2008-04-01T17:00:00Z,27.8398,-97.0727,0.0,5.4,136.0,7.4,'11111222,11111222,11111222' 
TCOON,ioos:station:TCOON:009:1,2008-04-01T18:00:00Z,27.8398,-97.0727,0.0,5.6,141.0,8.0,'11111222,11111222,11111222' 
TCOON,ioos:station:TCOON:009:1,2008-04-01T19:00:00Z,27.8398,-97.0727,0.0,5.5,142.0,8.6,'11111222,11111222,11111222' 
TCOON,ioos:station:TCOON:009:1,2008-04-01T20:00:00Z,27.8398,-97.0727,0.0,5.3,135.0,7.5,'11111222,11111222,11111222' 
TCOON,ioos:station:TCOON:009:1,2008-04-01T21:00:00Z,27.8398,-97.0727,0.0,3.9,130.0,5.6,'11111222,11111222,11111222' 
TCOON,ioos:station:TCOON:009:1,2008-04-01T23:00:00Z,27.8398,-97.0727,0.0,3.7,115.0,4.3,'11111222,11111222,11111222' 
TCOON,ioos:station:TCOON:009:1,2008-04-02T00:00:00Z,27.8398,-97.0727,0.0,4.9,86.0,6.2,'11111222,11111222,11111222' 
TCOON,ioos:station:TCOON:009:1,2008-04-02T01:00:00Z,27.8398,-97.0727,0.0,4.2,104.0,6.0,'11111222,11111222,11111222' 
TCOON,ioos:station:TCOON:009:1,2008-04-02T02:00:00Z,27.8398,-97.0727,0.0,3.4,105.0,4.2,'11111222,11111222,11111222' 
TCOON,ioos:station:TCOON:009:1,2008-04-02T03:00:00Z,27.8398,-97.0727,0.0,2.7,90.0,3.5,'11111222,11111222,11111222' 
TCOON,ioos:station:TCOON:009:1,2008-04-02T04:00:00Z,27.8398,-97.0727,0.0,2.4,91.0,2.9,'11111222,11111222,11111222' 
TCOON,ioos:station:TCOON:009:1,2008-04-02T05:00:00Z,27.8398,-97.0727,0.0,2.1,107.0,3.1,'11111222,11111222,11111222' 
TCOON,ioos:station:TCOON:009:1,2008-04-02T06:00:00Z,27.8398,-97.0727,0.0,2.8,56.0,3.4,'11111222,11111222,11111222' 
TCOON,ioos:station:TCOON:009:1,2008-04-02T07:00:00Z,27.8398,-97.0727,0.0,3.8,56.0,4.2,'11111222,11111222,11111222' 
TCOON,ioos:station:TCOON:009:1,2008-04-02T08:00:00Z,27.8398,-97.0727,0.0,4.9,64.0,5.7,'11111222,11111222,11111222' 
TCOON,ioos:station:TCOON:009:1,2008-04-02T09:00:00Z,27.8398,-97.0727,0.0,5.0,70.0,5.9,'11111222,11111222,11111222' 
TCOON,ioos:station:TCOON:009:1,2008-04-02T10:00:00Z,27.8398,-97.0727,0.0,4.9,88.0,5.9,'11111222,11111222,11111222' 
TCOON,ioos:station:TCOON:009:1,2008-04-02T11:00:00Z,27.8398,-97.0727,0.0,4.4,63.0,4.9,'11111222,11111222,11111222' 
TCOON,ioos:station:TCOON:009:1,2008-04-02T12:00:00Z,27.8398,-97.0727,0.0,5.5,76.0,6.2,'11111222,11111222,11111222' 
TCOON,ioos:station:TCOON:009:1,2008-04-02T13:00:00Z,27.8398,-97.0727,0.0,5.2,78.0,6.2,'11111222,11111222,11111222' 
TCOON,ioos:station:TCOON:009:1,2008-04-02T14:00:00Z,27.8398,-97.0727,0.0,3.9,86.0,4.8,'11111222,11111222,11111222' 
TCOON,ioos:station:TCOON:009:1,2008-04-02T15:00:00Z,27.8398,-97.0727,0.0,3.5,114.0,5.0,'11111222,11111222,11111222' 
TCOON,ioos:station:TCOON:009:1,2008-04-02T16:00:00Z,27.8398,-97.0727,0.0,2.2,116.0,3.0,'11111222,11111222,11111222' 
TCOON,ioos:station:TCOON:009:1,2008-04-02T17:00:00Z,27.8398,-97.0727,0.0,4.2,130.0,5.4,'11111222,11111222,11111222' 
TCOON,ioos:station:TCOON:009:1,2008-04-02T19:00:00Z,27.8398,-97.0727,0.0,6.5,135.0,9.0,'11111222,11111222,11111222' 
TCOON,ioos:station:TCOON:009:1,2008-04-02T20:00:00Z,27.8398,-97.0727,0.0,5.5,130.0,6.9,'11111222,11111222,11111222' 
TCOON,ioos:station:TCOON:009:1,2008-04-02T21:00:00Z,27.8398,-97.0727,0.0,5.7,118.0,7.5,'11111222,11111222,11111222' 
TCOON,ioos:station:TCOON:009:1,2008-04-02T22:00:00Z,27.8398,-97.0727,0.0,3.9,110.0,5.6,'11111222,11111222,11111222' 
TCOON,ioos:station:TCOON:009:1,2008-04-02T23:00:00Z,27.8398,-97.0727,0.0,4.5,100.0,6.2,'11111222,11111222,11111222' 
TCOON,ioos:station:TCOON:009:1,2008-04-03T00:00:00Z,27.8398,-97.0727,0.0,3.6,112.0,5.4,'11111222,11111222,11111222' 
TCOON,ioos:station:TCOON:009:1,2008-04-03T01:00:00Z,27.8398,-97.0727,0.0,3.5,112.0,5.5,'11111222,11111222,11111222' 
TCOON,ioos:station:TCOON:009:1,2008-04-03T02:00:00Z,27.8398,-97.0727,0.0,2.6,117.0,4.8,'11111222,11111222,11111222' 
TCOON,ioos:station:TCOON:009:1,2008-04-03T03:00:00Z,27.8398,-97.0727,0.0,2.7,115.0,4.0,'11111222,11111222,11111222' 
TCOON,ioos:station:TCOON:009:1,2008-04-03T04:00:00Z,27.8398,-97.0727,0.0,3.9,111.0,5.5,'11111222,11111222,11111222' 
TCOON,ioos:station:TCOON:009:1,2008-04-03T05:00:00Z,27.8398,-97.0727,0.0,2.8,118.0,4.5,'11111222,11111222,11111222' 
TCOON,ioos:station:TCOON:009:1,2008-04-03T06:00:00Z,27.8398,-97.0727,0.0,3.4,123.0,5.3,'11111222,11111222,11111222' 
TCOON,ioos:station:TCOON:009:1,2008-04-03T07:00:00Z,27.8398,-97.0727,0.0,3.5,115.0,4.9,'11111222,11111222,11111222' 
TCOON,ioos:station:TCOON:009:1,2008-04-03T08:00:00Z,27.8398,-97.0727,0.0,4.5,122.0,6.2,'11111222,11111222,11111222' 
TCOON,ioos:station:TCOON:009:1,2008-04-03T09:00:00Z,27.8398,-97.0727,0.0,3.5,114.0,5.8,'11111222,11111222,11111222' 
TCOON,ioos:station:TCOON:009:1,2008-04-03T10:00:00Z,27.8398,-97.0727,0.0,5.2,126.0,6.5,'11111222,11111222,11111222' 
TCOON,ioos:station:TCOON:009:1,2008-04-03T11:00:00Z,27.8398,-97.0727,0.0,5.7,134.0,8.0,'11111222,11111222,11111222' 
TCOON,ioos:station:TCOON:009:1,2008-04-03T12:00:00Z,27.8398,-97.0727,0.0,4.3,140.0,6.3,'11111222,11111222,11111222' 
TCOON,ioos:station:TCOON:009:1,2008-04-03T13:00:00Z,27.8398,-97.0727,0.0,3.7,147.0,6.2,'11111222,11111222,11111222' 
TCOON,ioos:station:TCOON:009:1,2008-04-03T14:00:00Z,27.8398,-97.0727,0.0,4.7,153.0,7.4,'11111222,11111222,11111222' 
TCOON,ioos:station:TCOON:009:1,2008-04-03T15:00:00Z,27.8398,-97.0727,0.0,5.0,149.0,7.5,'11111222,11111222,11111222' 
TCOON,ioos:station:TCOON:009:1,2008-04-03T16:00:00Z,27.8398,-97.0727,0.0,5.3,138.0,8.1,'11111222,11111222,11111222' 
TCOON,ioos:station:TCOON:009:1,2008-04-03T18:00:00Z,27.8398,-97.0727,0.0,8.0,163.0,12.7,'11111222,11111222,11111222' 
TCOON,ioos:station:TCOON:009:1,2008-04-03T19:00:00Z,27.8398,-97.0727,0.0,7.4,159.0,11.0,'11111222,11111222,11111222' 
TCOON,ioos:station:TCOON:009:1,2008-04-03T20:00:00Z,27.8398,-97.0727,0.0,7.1,165.0,11.1,'11111222,11111222,11111222' 
TCOON,ioos:station:TCOON:009:1,2008-04-03T21:00:00Z,27.8398,-97.0727,0.0,5.7,160.0,9.1,'11111222,11111222,11111222' 
TCOON,ioos:station:TCOON:009:1,2008-04-03T22:00:00Z,27.8398,-97.0727,0.0,5.6,166.0,9.4,'11111222,11111222,11111222' 
TCOON,ioos:station:TCOON:009:1,2008-04-03T23:00:00Z,27.8398,-97.0727,0.0,4.8,158.0,8.4,'11111222,11111222,11111222' 
TCOON,ioos:station:TCOON:009:1,2008-04-04T00:00:00Z,27.8398,-97.0727,0.0,4.2,148.0,8.2,'11111222,11111222,11111222' 
TCOON,ioos:station:TCOON:009:1,2008-04-04T01:00:00Z,27.8398,-97.0727,0.0,3.9,140.0,6.4,'11111222,11111222,11111222' 
TCOON,ioos:station:TCOON:009:1,2008-04-04T02:00:00Z,27.8398,-97.0727,0.0,5.0,146.0,7.9,'11111222,11111222,11111222' 
TCOON,ioos:station:TCOON:009:1,2008-04-04T03:00:00Z,27.8398,-97.0727,0.0,5.4,147.0,7.7,'11111222,11111222,11111222' 
TCOON,ioos:station:TCOON:009:1,2008-04-04T04:00:00Z,27.8398,-97.0727,0.0,5.7,161.0,8.8,'11111222,11111222,11111222' 
TCOON,ioos:station:TCOON:009:1,2008-04-04T05:00:00Z,27.8398,-97.0727,0.0,3.5,159.0,6.0,'11111222,11111222,11111222' 
TCOON,ioos:station:TCOON:009:1,2008-04-04T06:00:00Z,27.8398,-97.0727,0.0,4.3,161.0,6.0,'11111222,11111222,11111222' 
TCOON,ioos:station:TCOON:009:1,2008-04-04T07:00:00Z,27.8398,-97.0727,0.0,2.9,150.0,5.4,'11111222,11111222,11111222' 
TCOON,ioos:station:TCOON:009:1,2008-04-04T08:00:00Z,27.8398,-97.0727,0.0,3.5,155.0,5.7,'11111222,11111222,11111222' 
TCOON,ioos:station:TCOON:009:1,2008-04-04T09:00:00Z,27.8398,-97.0727,0.0,4.7,164.0,7.4,'11111222,11111222,11111222' 
TCOON,ioos:station:TCOON:009:1,2008-04-04T10:00:00Z,27.8398,-97.0727,0.0,6.1,168.0,9.0,'11111222,11111222,11111222' 
TCOON,ioos:station:TCOON:009:1,2008-04-04T11:00:00Z,27.8398,-97.0727,0.0,5.4,169.0,8.5,'11111222,11111222,11111222' 
TCOON,ioos:station:TCOON:009:1,2008-04-04T12:00:00Z,27.8398,-97.0727,0.0,6.3,167.0,10.2,'11111222,11111222,11111222' 
TCOON,ioos:station:TCOON:009:1,2008-04-04T13:00:00Z,27.8398,-97.0727,0.0,2.6,171.0,4.9,'11111222,11111222,11111222' 
TCOON,ioos:station:TCOON:009:1,2008-04-04T14:00:00Z,27.8398,-97.0727,0.0,3.5,159.0,4.8,'11111222,11111222,11111222' 
TCOON,ioos:station:TCOON:009:1,2008-04-04T15:00:00Z,27.8398,-97.0727,0.0,2.1,167.0,2.9,'11111222,11111222,11111222' 
TCOON,ioos:station:TCOON:009:1,2008-04-04T18:00:00Z,27.8398,-97.0727,0.0,4.5,142.0,6.9,'11111222,11111222,11111222' 
TCOON,ioos:station:TCOON:009:1,2008-04-04T19:00:00Z,27.8398,-97.0727,0.0,3.4,136.0,4.5,'11111222,11111222,11111222' 
TCOON,ioos:station:TCOON:009:1,2008-04-04T20:00:00Z,27.8398,-97.0727,0.0,2.9,141.0,4.4,'11111222,11111222,11111222' 
TCOON,ioos:station:TCOON:009:1,2008-04-04T21:00:00Z,27.8398,-97.0727,0.0,9.4,359.0,11.6,'11111222,11111222,11111222' 
TCOON,ioos:station:TCOON:009:1,2008-04-04T22:00:00Z,27.8398,-97.0727,0.0,10.3,4.0,12.8,'11111222,11111222,11111222' 
TCOON,ioos:station:TCOON:009:1,2008-04-04T23:00:00Z,27.8398,-97.0727,0.0,8.5,360.0,10.3,'11111222,11144222,11111222' 
TCOON,ioos:station:TCOON:009:1,2008-04-05T00:00:00Z,27.8398,-97.0727,0.0,9.0,359.0,11.2,'11111222,11111222,11111222' 
TCOON,ioos:station:TCOON:009:1,2008-04-05T01:00:00Z,27.8398,-97.0727,0.0,10.5,19.0,13.6,'11111222,11111222,11111222' 
TCOON,ioos:station:TCOON:009:1,2008-04-05T02:00:00Z,27.8398,-97.0727,0.0,9.1,8.0,11.9,'11111222,11111222,11111222' 
TCOON,ioos:station:TCOON:009:1,2008-04-05T03:00:00Z,27.8398,-97.0727,0.0,8.5,358.0,12.4,'11111222,11111222,11111222' 
TCOON,ioos:station:TCOON:009:1,2008-04-05T04:00:00Z,27.8398,-97.0727,0.0,10.4,13.0,13.6,'11111222,11111222,11111222' 
TCOON,ioos:station:TCOON:009:1,2008-04-05T05:00:00Z,27.8398,-97.0727,0.0,10.0,20.0,12.1,'11111222,11111222,11111222' 
TCOON,ioos:station:TCOON:009:1,2008-04-05T06:00:00Z,27.8398,-97.0727,0.0,9.5,21.0,12.3,'11111222,11111222,11111222' 
TCOON,ioos:station:TCOON:009:1,2008-04-05T07:00:00Z,27.8398,-97.0727,0.0,10.8,32.0,13.8,'11111222,11111222,11111222' 
TCOON,ioos:station:TCOON:009:1,2008-04-05T08:00:00Z,27.8398,-97.0727,0.0,10.3,34.0,13.0,'11111222,11111222,11111222' 
TCOON,ioos:station:TCOON:009:1,2008-04-05T09:00:00Z,27.8398,-97.0727,0.0,6.2,35.0,7.7,'11111222,11111222,11111222' 
TCOON,ioos:station:TCOON:009:1,2008-04-05T10:00:00Z,27.8398,-97.0727,0.0,6.3,34.0,7.1,'11111222,11111222,11111222' 
TCOON,ioos:station:TCOON:009:1,2008-04-05T11:00:00Z,27.8398,-97.0727,0.0,5.3,21.0,6.2,'11111222,11111222,11111222' 
TCOON,ioos:station:TCOON:009:1,2008-04-05T12:00:00Z,27.8398,-97.0727,0.0,6.3,24.0,8.0,'11111222,11111222,11111222' 
TCOON,ioos:station:TCOON:009:1,2008-04-05T13:00:00Z,27.8398,-97.0727,0.0,4.7,358.0,5.7,'11111222,11111222,11111222' 
TCOON,ioos:station:TCOON:009:1,2008-04-05T14:00:00Z,27.8398,-97.0727,0.0,8.4,19.0,9.7,'11111222,11111222,11111222' 
TCOON,ioos:station:TCOON:009:1,2008-04-05T15:00:00Z,27.8398,-97.0727,0.0,6.9,20.0,8.1,'11111222,11111222,11111222' 
TCOON,ioos:station:TCOON:009:1,2008-04-05T17:00:00Z,27.8398,-97.0727,0.0,0.3,68.0,0.9,'11111222,11111222,11111222' 
TCOON,ioos:station:TCOON:009:1,2008-04-05T18:00:00Z,27.8398,-97.0727,0.0,3.6,68.0,4.2,'11111222,11111222,11111222' 
TCOON,ioos:station:TCOON:009:1,2008-04-05T19:00:00Z,27.8398,-97.0727,0.0,3.9,89.0,5.5,'11111222,11111222,11111222' 
TCOON,ioos:station:TCOON:009:1,2008-04-05T20:00:00Z,27.8398,-97.0727,0.0,3.8,108.0,5.2,'11111222,11111222,11111222' 
TCOON,ioos:station:TCOON:009:1,2008-04-05T21:00:00Z,27.8398,-97.0727,0.0,5.6,90.0,7.2,'11111222,11111222,11111222' 
TCOON,ioos:station:TCOON:009:1,2008-04-05T22:00:00Z,27.8398,-97.0727,0.0,5.1,101.0,7.1,'11111222,11111222,11111222' 
TCOON,ioos:station:TCOON:009:1,2008-04-05T23:00:00Z,27.8398,-97.0727,0.0,4.5,108.0,7.0,'11111222,11111222,11111222' 
TCOON,ioos:station:TCOON:009:1,2008-04-06T00:00:00Z,27.8398,-97.0727,0.0,4.6,116.0,6.5,'11111222,11111222,11111222' 
TCOON,ioos:station:TCOON:009:1,2008-04-06T01:00:00Z,27.8398,-97.0727,0.0,4.9,125.0,6.6,'11111222,11111222,11111222' 
TCOON,ioos:station:TCOON:009:1,2008-04-06T02:00:00Z,27.8398,-97.0727,0.0,5.7,121.0,9.2,'11111222,11111222,11111222' 
TCOON,ioos:station:TCOON:009:1,2008-04-06T03:00:00Z,27.8398,-97.0727,0.0,5.7,126.0,7.5,'11111222,11111222,11111222' 
TCOON,ioos:station:TCOON:009:1,2008-04-06T04:00:00Z,27.8398,-97.0727,0.0,3.9,123.0,6.6,'11111222,11111222,11111222' 
TCOON,ioos:station:TCOON:009:1,2008-04-06T05:00:00Z,27.8398,-97.0727,0.0,4.2,123.0,6.1,'11111222,11111222,11111222' 
TCOON,ioos:station:TCOON:009:1,2008-04-06T06:00:00Z,27.8398,-97.0727,0.0,3.9,129.0,5.0,'11111222,11111222,11111222' 
TCOON,ioos:station:TCOON:009:1,2008-04-06T07:00:00Z,27.8398,-97.0727,0.0,4.1,132.0,5.8,'11111222,11111222,11111222' 
TCOON,ioos:station:TCOON:009:1,2008-04-06T08:00:00Z,27.8398,-97.0727,0.0,2.6,142.0,3.7,'11111222,11111222,11111222' 
TCOON,ioos:station:TCOON:009:1,2008-04-06T09:00:00Z,27.8398,-97.0727,0.0,3.0,135.0,4.8,'11111222,11111222,11111222' 
TCOON,ioos:station:TCOON:009:1,2008-04-06T10:00:00Z,27.8398,-97.0727,0.0,2.3,153.0,3.4,'11111222,11111222,11111222' 
TCOON,ioos:station:TCOON:009:1,2008-04-06T11:00:00Z,27.8398,-97.0727,0.0,2.0,153.0,4.3,'11111222,11111222,11111222' 
TCOON,ioos:station:TCOON:009:1,2008-04-06T12:00:00Z,27.8398,-97.0727,0.0,4.1,131.0,5.0,'11111222,11111222,11111222' 
TCOON,ioos:station:TCOON:009:1,2008-04-06T13:00:00Z,27.8398,-97.0727,0.0,2.7,108.0,3.9,'11111222,11111222,11111222' 
TCOON,ioos:station:TCOON:009:1,2008-04-06T14:00:00Z,27.8398,-97.0727,0.0,3.0,86.0,3.8,'11111222,11111222,11111222' 
TCOON,ioos:station:TCOON:009:1,2008-04-06T15:00:00Z,27.8398,-97.0727,0.0,3.1,97.0,4.5,'11111222,11111222,11111222' 
TCOON,ioos:station:TCOON:009:1,2008-04-06T16:00:00Z,27.8398,-97.0727,0.0,2.6,145.0,3.8,'11111222,11111222,11111222' 
TCOON,ioos:station:TCOON:009:1,2008-04-06T17:00:00Z,27.8398,-97.0727,0.0,2.2,74.0,3.4,'11111222,11111222,11111222' 
TCOON,ioos:station:TCOON:009:1,2008-04-06T18:00:00Z,27.8398,-97.0727,0.0,2.3,112.0,3.7,'11111222,11111222,11111222' 
TCOON,ioos:station:TCOON:009:1,2008-04-06T19:00:00Z,27.8398,-97.0727,0.0,2.5,70.0,4.0,'11111222,11111222,11111222' 
TCOON,ioos:station:TCOON:009:1,2008-04-06T20:00:00Z,27.8398,-97.0727,0.0,2.6,125.0,4.1,'11111222,11111222,11111222' 
TCOON,ioos:station:TCOON:009:1,2008-04-06T21:00:00Z,27.8398,-97.0727,0.0,4.9,120.0,6.1,'11111222,11111222,11111222' 
TCOON,ioos:station:TCOON:009:1,2008-04-06T22:00:00Z,27.8398,-97.0727,0.0,5.2,114.0,6.7,'11111222,11111222,11111222' 
TCOON,ioos:station:TCOON:009:1,2008-04-06T23:00:00Z,27.8398,-97.0727,0.0,5.1,105.0,7.3,'11111222,11111222,11111222' 
TCOON,ioos:station:TCOON:009:1,2008-04-07T00:00:00Z,27.8398,-97.0727,0.0,5.0,110.0,6.9,'11111222,11111222,11111222' 
TCOON,ioos:station:TCOON:009:1,2008-04-07T01:00:00Z,27.8398,-97.0727,0.0,4.3,115.0,6.3,'11111222,11111222,11111222' 
TCOON,ioos:station:TCOON:009:1,2008-04-07T02:00:00Z,27.8398,-97.0727,0.0,3.9,108.0,5.1,'11111222,11111222,11111222' 
TCOON,ioos:station:TCOON:009:1,2008-04-07T03:00:00Z,27.8398,-97.0727,0.0,4.0,114.0,6.4,'11111222,11111222,11111222' 
TCOON,ioos:station:TCOON:009:1,2008-04-07T04:00:00Z,27.8398,-97.0727,0.0,4.0,121.0,6.1,'11111222,11111222,11111222' 
TCOON,ioos:station:TCOON:009:1,2008-04-07T05:00:00Z,27.8398,-97.0727,0.0,3.6,120.0,5.2,'11111222,11111222,11111222' 
TCOON,ioos:station:TCOON:009:1,2008-04-07T06:00:00Z,27.8398,-97.0727,0.0,3.2,133.0,4.3,'11111222,11111222,11111222' 
TCOON,ioos:station:TCOON:009:1,2008-04-07T07:00:00Z,27.8398,-97.0727,0.0,2.1,139.0,3.1,'11111222,11111222,11111222' 
TCOON,ioos:station:TCOON:009:1,2008-04-07T08:00:00Z,27.8398,-97.0727,0.0,2.0,133.0,2.6,'11111222,11111222,11111222' 
TCOON,ioos:station:TCOON:009:1,2008-04-07T09:00:00Z,27.8398,-97.0727,0.0,1.5,127.0,1.7,'11111222,11111222,11111222' 
TCOON,ioos:station:TCOON:009:1,2008-04-07T10:00:00Z,27.8398,-97.0727,0.0,1.8,102.0,2.5,'11111222,11111222,11111222' 
TCOON,ioos:station:TCOON:009:1,2008-04-07T11:00:00Z,27.8398,-97.0727,0.0,2.5,126.0,3.3,'11111222,11111222,11111222' 
TCOON,ioos:station:TCOON:009:1,2008-04-07T12:00:00Z,27.8398,-97.0727,0.0,1.2,143.0,1.5,'11111222,11111222,11111222' 
TCOON,ioos:station:TCOON:009:1,2008-04-07T13:00:00Z,27.8398,-97.0727,0.0,1.9,154.0,2.7,'11111222,11111222,11111222' 
TCOON,ioos:station:TCOON:009:1,2008-04-07T14:00:00Z,27.8398,-97.0727,0.0,2.4,188.0,3.3,'11111222,11111222,11111222' 
TCOON,ioos:station:TCOON:009:1,2008-04-07T15:00:00Z,27.8398,-97.0727,0.0,2.3,178.0,3.0,'11111222,11111222,11111222' 
TCOON,ioos:station:TCOON:009:1,2008-04-07T16:00:00Z,27.8398,-97.0727,0.0,2.2,163.0,3.0,'11111222,11111222,11111222' 
TCOON,ioos:station:TCOON:009:1,2008-04-07T17:00:00Z,27.8398,-97.0727,0.0,1.2,296.0,1.8,'11111222,11111222,11111222' 
TCOON,ioos:station:TCOON:009:1,2008-04-07T18:00:00Z,27.8398,-97.0727,0.0,2.3,121.0,4.5,'11111222,11111222,11111222' 
TCOON,ioos:station:TCOON:009:1,2008-04-07T19:00:00Z,27.8398,-97.0727,0.0,4.6,111.0,5.8,'11111222,11111222,11111222' 
TCOON,ioos:station:TCOON:009:1,2008-04-07T20:00:00Z,27.8398,-97.0727,0.0,5.4,93.0,6.7,'11111222,11111222,11111222' 
TCOON,ioos:station:TCOON:009:1,2008-04-07T21:00:00Z,27.8398,-97.0727,0.0,6.0,91.0,7.5,'11111222,11111222,11111222' 
TCOON,ioos:station:TCOON:009:1,2008-04-07T22:00:00Z,27.8398,-97.0727,0.0,6.2,111.0,8.4,'11111222,11111222,11111222' 
TCOON,ioos:station:TCOON:009:1,2008-04-07T23:00:00Z,27.8398,-97.0727,0.0,5.7,106.0,8.0,'11111222,11111222,11111222' 
TCOON,ioos:station:TCOON:009:1,2008-04-08T00:00:00Z,27.8398,-97.0727,0.0,7.4,100.0,10.2,'11111222,11111222,11111222' 
TCOON,ioos:station:TCOON:009:1,2008-04-08T01:00:00Z,27.8398,-97.0727,0.0,5.7,98.0,8.2,'11111222,11111222,11111222' 
TCOON,ioos:station:TCOON:009:1,2008-04-08T02:00:00Z,27.8398,-97.0727,0.0,6.1,107.0,7.9,'11111222,11111222,11111222' 
TCOON,ioos:station:TCOON:009:1,2008-04-08T03:00:00Z,27.8398,-97.0727,0.0,6.1,105.0,8.8,'11111222,11111222,11111222' 
TCOON,ioos:station:TCOON:009:1,2008-04-08T04:00:00Z,27.8398,-97.0727,0.0,4.7,120.0,7.9,'11111222,11111222,11111222' 
TCOON,ioos:station:TCOON:009:1,2008-04-08T05:00:00Z,27.8398,-97.0727,0.0,4.6,134.0,7.3,'11111222,11111222,11111222' 
TCOON,ioos:station:TCOON:009:1,2008-04-08T06:00:00Z,27.8398,-97.0727,0.0,4.4,133.0,6.2,'11111222,11111222,11111222' 
TCOON,ioos:station:TCOON:009:1,2008-04-08T07:00:00Z,27.8398,-97.0727,0.0,4.1,152.0,6.8,'11111222,11111222,11111222' 
TCOON,ioos:station:TCOON:009:1,2008-04-08T08:00:00Z,27.8398,-97.0727,0.0,2.4,160.0,3.9,'11111222,11111222,11111222' 
TCOON,ioos:station:TCOON:009:1,2008-04-08T09:00:00Z,27.8398,-97.0727,0.0,2.7,170.0,4.4,'11111222,11111222,11111222' 
TCOON,ioos:station:TCOON:009:1,2008-04-08T10:00:00Z,27.8398,-97.0727,0.0,2.2,150.0,3.6,'11111222,11111222,11111222' 
TCOON,ioos:station:TCOON:009:1,2008-04-08T11:00:00Z,27.8398,-97.0727,0.0,2.0,153.0,2.9,'11111222,11111222,11111222' 
TCOON,ioos:station:TCOON:009:1,2008-04-08T12:00:00Z,27.8398,-97.0727,0.0,2.0,140.0,2.8,'11111222,11111222,11111222' 
TCOON,ioos:station:TCOON:009:1,2008-04-08T13:00:00Z,27.8398,-97.0727,0.0,3.6,126.0,5.1,'11111222,11111222,11111222' 
TCOON,ioos:station:TCOON:009:1,2008-04-08T14:00:00Z,27.8398,-97.0727,0.0,3.9,133.0,5.3,'11111222,11111222,11111222' 
TCOON,ioos:station:TCOON:009:1,2008-04-08T15:00:00Z,27.8398,-97.0727,0.0,4.8,140.0,6.9,'11111222,11111222,11111222' 
TCOON,ioos:station:TCOON:009:1,2008-04-08T16:00:00Z,27.8398,-97.0727,0.0,4.5,139.0,6.3,'11111222,11111222,11111222' 
TCOON,ioos:station:TCOON:009:1,2008-04-08T17:00:00Z,27.8398,-97.0727,0.0,4.4,125.0,6.0,'11111222,11111222,11111222' 
TCOON,ioos:station:TCOON:009:1,2008-04-08T18:00:00Z,27.8398,-97.0727,0.0,4.5,121.0,6.4,'11111222,11111222,11111222' 
TCOON,ioos:station:TCOON:009:1,2008-04-08T19:00:00Z,27.8398,-97.0727,0.0,5.3,119.0,7.5,'11111222,11111222,11111222' 
TCOON,ioos:station:TCOON:009:1,2008-04-08T20:00:00Z,27.8398,-97.0727,0.0,7.5,129.0,10.7,'11111222,11111222,11111222' 
TCOON,ioos:station:TCOON:009:1,2008-04-08T21:00:00Z,27.8398,-97.0727,0.0,5.8,109.0,9.3,'11111222,11111222,11111222' 
TCOON,ioos:station:TCOON:009:1,2008-04-08T22:00:00Z,27.8398,-97.0727,0.0,5.5,104.0,7.3,'11111222,11111222,11111222' 
TCOON,ioos:station:TCOON:009:1,2008-04-08T23:00:00Z,27.8398,-97.0727,0.0,6.9,107.0,9.3,'11111222,11111222,11111222' 
TCOON,ioos:station:TCOON:009:1,2008-04-09T00:00:00Z,27.8398,-97.0727,0.0,6.2,109.0,9.0,'11111222,11111222,11111222' 
TCOON,ioos:station:TCOON:009:1,2008-04-09T01:00:00Z,27.8398,-97.0727,0.0,4.7,116.0,7.5,'11111222,11111222,11111222' 
TCOON,ioos:station:TCOON:009:1,2008-04-09T02:00:00Z,27.8398,-97.0727,0.0,5.5,118.0,7.8,'11111222,11111222,11111222' 
TCOON,ioos:station:TCOON:009:1,2008-04-09T03:00:00Z,27.8398,-97.0727,0.0,4.4,117.0,6.6,'11111222,11111222,11111222' 
TCOON,ioos:station:TCOON:009:1,2008-04-09T04:00:00Z,27.8398,-97.0727,0.0,4.7,125.0,5.8,'11111222,11111222,11111222' 
TCOON,ioos:station:TCOON:009:1,2008-04-09T05:00:00Z,27.8398,-97.0727,0.0,4.9,126.0,7.5,'11111222,11111222,11111222' 
TCOON,ioos:station:TCOON:009:1,2008-04-09T06:00:00Z,27.8398,-97.0727,0.0,4.7,110.0,6.6,'11111222,11111222,11111222' 
TCOON,ioos:station:TCOON:009:1,2008-04-09T07:00:00Z,27.8398,-97.0727,0.0,4.6,112.0,6.6,'11111222,11111222,11111222' 
TCOON,ioos:station:TCOON:009:1,2008-04-09T08:00:00Z,27.8398,-97.0727,0.0,4.0,113.0,6.3,'11111222,11111222,11111222' 
TCOON,ioos:station:TCOON:009:1,2008-04-09T09:00:00Z,27.8398,-97.0727,0.0,4.4,115.0,5.9,'11111222,11111222,11111222' 
TCOON,ioos:station:TCOON:009:1,2008-04-09T10:00:00Z,27.8398,-97.0727,0.0,4.4,115.0,6.7,'11111222,11111222,11111222' 
TCOON,ioos:station:TCOON:009:1,2008-04-09T11:00:00Z,27.8398,-97.0727,0.0,3.6,118.0,5.4,'11111222,11111222,11111222' 
TCOON,ioos:station:TCOON:009:1,2008-04-09T12:00:00Z,27.8398,-97.0727,0.0,3.3,122.0,4.1,'11111222,11111222,11111222' 
TCOON,ioos:station:TCOON:009:1,2008-04-09T13:00:00Z,27.8398,-97.0727,0.0,3.7,115.0,5.6,'11111222,11111222,11111222' 
TCOON,ioos:station:TCOON:009:1,2008-04-09T14:00:00Z,27.8398,-97.0727,0.0,4.7,115.0,6.8,'11111222,11111222,11111222' 
TCOON,ioos:station:TCOON:009:1,2008-04-09T15:00:00Z,27.8398,-97.0727,0.0,5.0,122.0,7.2,'11111222,11111222,11111222' 
TCOON,ioos:station:TCOON:009:1,2008-04-09T16:00:00Z,27.8398,-97.0727,0.0,4.9,121.0,6.9,'11111222,11111222,11111222' 
TCOON,ioos:station:TCOON:009:1,2008-04-09T17:00:00Z,27.8398,-97.0727,0.0,4.8,114.0,7.1,'11111222,11111222,11111222' 
TCOON,ioos:station:TCOON:009:1,2008-04-09T18:00:00Z,27.8398,-97.0727,0.0,6.5,123.0,9.0,'11111222,11111222,11111222' 